Deer Park, WA

10:30 PM PST on February 11, 2016 (GMT -0800)
Deer Park

Weather History for KDEW - May, 2013

Change the Weather History Date:

Tuesday, May 28, 2013

  Actual Average Record
Temperature  
Mean Temperature 56 °F 55 °F  
Max Temperature 63 °F 69 °F 87 °F (2005)
Min Temperature 49 °F 42 °F 34 °F (2011)
Degree Days  
Heating Degree Days 9 10  
Month to date heating degree days 298 374  
Since 1 July heating degree days 6774 7185  
Cooling Degree Days 0 0  
Month to date cooling degree days 3 0  
Year to date cooling degree days 3 0  
Growing Degree Days 5 (Base 50)    
Moisture  
Dew Point 48 °F    
Average Humidity 76    
Maximum Humidity 96    
Minimum Humidity 56    
Precipitation  
Precipitation 0.14 in 0.07 in 0.26 in (2006)
Month to date precipitation 1.12 1.64  
Year to date precipitation 6.36 9.54  
Sea Level Pressure  
Sea Level Pressure 29.81 in    
Wind  
Wind Speed 4 mph (South)    
Max Wind Speed 21 mph    
Max Gust Speed 26 mph    
Visibility 9 miles    
Events Rain    
T = Trace of Precipitation, MM = Missing Value Source: NWS Daily Summary

Daily Weather History Graph

Daily Weather History Graph

Search for Another Location

Airport or City:

Trip Planner

Search our weather history database for the weather conditions in past years. The results will help you decide how hot, cold, wet, or windy it might be!

Date:

Astronomy

May. 28, 2013 Rise Set
Actual Time 4:57 AM PDT 8:37 PM PDT
Civil Twilight 4:17 AM PDT 9:16 PM PDT
Nautical Twilight 3:25 AM PDT 10:10 PM PDT
Astronomical Twilight 2:11 AM PDT 11:25 PM PDT
Moon 11:52 PM PDT (5/28) 8:58 AM PDT (5/28)
Length of Visible Light 16h 58m
Length of Day
15h 40m
Waning Gibbous, 82% of the Moon is Illuminated
May 28
Waning Gibbous
May 31
Last Quarter
Jun 8
New
Jun 16
First Quarter
Jun 23
Full

Hourly Weather History & Observations

Time (PDT) Temp. Dew Point Humidity Pressure Visibility Wind Dir Wind Speed Gust Speed Precip Events Conditions
12:53 AM 50.0 °F 48.0 °F 93% 29.78 in 10.0 mi Calm Calm - 0.01 in Rain Light Rain
1:46 AM 50.0 °F 48.2 °F 94% 29.79 in 7.0 mi Calm Calm - 0.01 in Rain Light Rain
1:53 AM 50.0 °F 48.9 °F 96% 29.78 in 6.0 mi Calm Calm - 0.01 in Rain Light Rain
2:01 AM 50.0 °F 48.2 °F 94% 29.79 in 6.0 mi Calm Calm - 0.00 in Rain Light Rain
2:12 AM 50.0 °F 48.2 °F 94% 29.79 in 7.0 mi Calm Calm - 0.00 in Rain Light Rain
2:42 AM 50.0 °F 48.2 °F 94% 29.79 in 9.0 mi Calm Calm - 0.01 in Rain Light Rain
2:53 AM 50.0 °F 48.0 °F 93% 29.78 in 7.0 mi Calm Calm - 0.01 in   Overcast
3:03 AM 50.0 °F 48.2 °F 94% 29.79 in 7.0 mi Calm Calm - 0.00 in Rain Light Rain
3:17 AM 50.0 °F 48.2 °F 94% 29.79 in 4.0 mi Calm Calm - 0.01 in Rain Light Rain
3:25 AM 48.2 °F 48.2 °F 100% 29.80 in 5.0 mi Calm Calm - 0.01 in Rain Light Rain
3:53 AM 50.0 °F 48.0 °F 93% 29.79 in 10.0 mi Calm Calm - 0.03 in Rain Light Rain
4:33 AM 48.2 °F 48.2 °F 100% 29.80 in 4.0 mi Calm Calm - 0.02 in Rain Light Rain
4:53 AM 48.9 °F 48.0 °F 97% 29.80 in 9.0 mi Calm Calm - 0.02 in   Overcast
5:21 AM 48.2 °F 48.2 °F 100% 29.80 in 10.0 mi Calm Calm - N/A   Overcast
5:45 AM 50.0 °F 48.2 °F 94% 29.80 in 10.0 mi Calm Calm - N/A   Overcast
5:53 AM 50.0 °F 48.0 °F 93% 29.80 in 10.0 mi Calm Calm - N/A   Overcast
6:00 AM 50.0 °F 48.2 °F 94% 29.80 in 10.0 mi Calm Calm - N/A   Overcast
6:15 AM 50.0 °F 48.2 °F 94% 29.80 in 10.0 mi SSE 3.5 mph - N/A   Overcast
6:53 AM 50.0 °F 48.0 °F 93% 29.81 in 10.0 mi SSW 4.6 mph - N/A   Overcast
7:16 AM 51.8 °F 48.2 °F 88% 29.81 in 10.0 mi SSW 3.5 mph - N/A   Overcast
7:42 AM 51.8 °F 48.2 °F 88% 29.82 in 10.0 mi SW 5.8 mph - N/A   Overcast
7:53 AM 52.0 °F 48.0 °F 86% 29.82 in 10.0 mi SW 4.6 mph - N/A   Overcast
8:15 AM 51.8 °F 48.2 °F 88% 29.81 in 10.0 mi South 5.8 mph - N/A   Overcast
8:53 AM 54.0 °F 48.0 °F 80% 29.83 in 10.0 mi South 6.9 mph - N/A   Overcast
9:12 AM 53.6 °F 48.2 °F 82% 29.83 in 10.0 mi South 8.1 mph - N/A   Overcast
9:46 AM 53.6 °F 46.4 °F 77% 29.83 in 10.0 mi South 8.1 mph - N/A   Overcast
9:53 AM 55.0 °F 46.9 °F 74% 29.83 in 10.0 mi SSW 6.9 mph - N/A   Overcast
10:53 AM 55.9 °F 46.9 °F 72% 29.84 in 10.0 mi SSW 8.1 mph - N/A   Overcast
11:34 AM 57.2 °F 46.4 °F 67% 29.83 in 10.0 mi SSW 6.9 mph - N/A   Overcast
11:44 AM 59.0 °F 46.4 °F 63% 29.83 in 10.0 mi South 9.2 mph - N/A   Overcast
11:53 AM 57.9 °F 46.9 °F 67% 29.83 in 10.0 mi SSW 10.4 mph - N/A   Overcast
12:24 PM 59.0 °F 48.2 °F 67% 29.83 in 10.0 mi SSW 11.5 mph - N/A   Overcast
12:37 PM 59.0 °F 48.2 °F 67% 29.83 in 10.0 mi SSW 12.7 mph - N/A   Mostly Cloudy
12:53 PM 59.0 °F 48.0 °F 67% 29.83 in 10.0 mi SW 10.4 mph - N/A   Scattered Clouds
1:53 PM 59.0 °F 46.9 °F 64% 29.84 in 10.0 mi SSW 13.8 mph - N/A   Overcast
2:53 PM 57.0 °F 48.0 °F 72% 29.84 in 10.0 mi SE 5.8 mph - N/A   Overcast
3:53 PM 62.1 °F 46.9 °F 58% 29.83 in 10.0 mi SSW 8.1 mph - N/A   Overcast
4:53 PM 59.0 °F 48.0 °F 67% 29.83 in 10.0 mi SSW 10.4 mph - 0.00 in Rain Light Rain
5:10 PM 53.6 °F 48.2 °F 82% 29.83 in 2.5 mi SSW 10.4 mph - 0.06 in Rain Rain
5:18 PM 55.4 °F 51.8 °F 88% 29.82 in 8.0 mi South 5.8 mph - 0.06 in Rain Light Rain
5:53 PM 55.9 °F 48.9 °F 77% 29.81 in 10.0 mi SSW 4.6 mph - 0.07 in   Overcast
6:53 PM 55.9 °F 50.0 °F 80% 29.81 in 10.0 mi ESE 4.6 mph - N/A   Overcast
7:53 PM 55.9 °F 48.9 °F 77% 29.81 in 10.0 mi SSE 3.5 mph - N/A   Overcast
8:53 PM 54.0 °F 51.1 °F 90% 29.80 in 10.0 mi Calm Calm - N/A   Overcast
9:53 PM 52.0 °F 50.0 °F 93% 29.79 in 10.0 mi East 3.5 mph - N/A   Overcast
10:53 PM 52.0 °F 48.9 °F 89% 29.79 in 10.0 mi Calm Calm - N/A   Overcast
11:53 PM 51.1 °F 48.9 °F 92% 29.78 in 10.0 mi Calm Calm - N/A   Overcast